Location: Newark
(52.3735°N, 16.9806°E)
Time: 07:47:33
(UTC+00:00)

ISS - Pass Details

Date: 01 October 2021
Orbit: 418 x 423 km, 51.6° (Epoch: 19 October)

Event Time Altitude Azimuth Distance (km) Brightness Sun altitude
Rises 18:16:16 0° 282° (WNW) 2,367 1.8 -17.0°
Reaches altitude 10° 18:18:33 10° 270° (W) 1,501 0.2 -17.4°
Maximum altitude 18:21:28 28° 210° (SSW) 830 -2.2 -17.8°
Enters shadow 18:22:25 24° 180° (S) 924 -2.2 -17.9°
